Terminal Aerodrome Forecast
Issued by NWS Charleston, WV

Home | Current Version | Previous Version | Text Only | Print | Product List | Glossary On
Versions: 1 2 3 4 5 6 7 8 9 10 11 12 13 14 15 16 17 18 19 20 21 22 23 24
813
FTUS41 KRLX 290902 AAA
TAFBKW
TAF AMD
KBKW 290902Z 2909/3006 35008KT P6SM OVC007
     FM291000 34006KT 4SM BR OVC004
     FM291300 36004KT P6SM BKN007
     FM291500 36004KT P6SM BKN015
     FM291800 36004KT P6SM BKN025
     FM292100 35006KT P6SM FEW150=

USA.gov is the U.S. government's official web portal to all federal, state and local government web resources and services.